Location: Deer Lodge Site
(39.6809°N, 119.9392°W)
Time: 23:57:42
(UTC-08:00)

Amateur Radio Satellites - All Passes

Search period start: 23 November 2014 23:27
Search period end: 24 November 2014 23:27
Location: Deer Lodge Site, 39.6809°N, 119.9392°W

Satellite Date Start Highest point End Downlink Frequencies (MHz)
Time Altitude Azimuth
ISS 23 Nov 23:41:15 23:44:23 45° 137° (SE) 23:47:33 145.825
DANDE 23 Nov 23:41:57 23:46:04 43° 80° (E) 23:51:33 436.750
ITUPSAT 1 23 Nov 23:51:38 23:55:41 28° 68° (ENE) 23:59:45 437.325
POLYITAN 1 23 Nov 23:53:10 23:56:35 24° 292° (WNW) 23:59:59 437.675
QB50P2 23 Nov 23:56:15 23:59:33 23° 292° (WNW) 00:02:51 145.880/145.840
RS-15 23 Nov 23:58:29 00:08:51 41° 43° (NE) 00:19:33 29.354- 29.394
SWISSCUBE 24 Nov 00:03:02 00:07:29 39° 70° (ENE) 00:11:58 437.505
DUCHIFAT 1 24 Nov 00:04:07 00:07:06 19° 293° (WNW) 00:10:05 145.980
TIGRISAT 24 Nov 00:05:36 00:08:02 15° 295° (WNW) 00:10:30 435.000
TISAT 1 24 Nov 00:09:44 00:13:20 26° 264° (W) 00:16:57 437.305
SPROUT 24 Nov 00:12:06 00:15:53 29° 264° (W) 00:19:40 437.525
UNISAT 6 24 Nov 00:19:07 00:20:15 11° 297° (WNW) 00:21:24 437.425
AUBIESAT-1 24 Nov 00:21:28 00:25:23 69° 254° (WSW) 00:29:43 437.475
NANOSAT C BR1 24 Nov 00:24:17 00:25:57 12° 297° (WNW) 00:27:36 145.865
M-CUBED/EXP-1 PRIME 24 Nov 00:25:10 00:29:01 56° 255° (WSW) 00:33:16 437.505
BEESAT 24 Nov 00:34:15 00:39:01 76° 75° (ENE) 00:43:50 436.000
STARS 24 Nov 01:03:07 01:06:23 21° 67° (ENE) 01:09:40 437.465
CUSAT 1 24 Nov 01:10:06 01:13:46 23° 265° (W) 01:18:16 437.405
ISS 24 Nov 01:18:24 01:21:10 24° 334° (NNW) 01:23:56 145.825
MaSat-1 24 Nov 01:19:18 01:21:31 40° 248° (WSW) 01:23:48 437.345
Oscar 19 24 Nov 01:22:21 01:27:28 59° 101° (E) 01:32:33 437.125/150
DANDE 24 Nov 01:26:23 01:29:31 18° 266° (W) 01:33:15 436.750
ITUPSAT 1 24 Nov 01:29:15 01:33:28 30° 263° (W) 01:37:43 437.325
KKS-1 24 Nov 01:37:37 01:42:03 73° 75° (ENE) 01:46:30 437.445
YUBILEINY 24 Nov 01:39:27 01:47:05 35° 85° (E) 01:54:42 435.215
SWISSCUBE 24 Nov 01:41:51 01:45:28 21° 266° (W) 01:49:06 437.505
JUGNU 24 Nov 01:57:32 01:58:20 10° 180° (S) 01:59:08 437.505
ITAMSAT 1 24 Nov 02:10:26 02:15:35 64° 102° (ESE) 02:20:42 435.822/435.867
RS-15 24 Nov 02:10:48 02:21:53 66° 245° (WSW) 02:33:28 29.354- 29.394
BEESAT 24 Nov 02:16:36 02:17:23 10° 271° (W) 02:18:11 436.000
Gurwin Techsat 1B 24 Nov 02:29:37 02:34:51 56° 100° (E) 02:40:02 435.225
STARS 24 Nov 02:38:37 02:42:38 35° 262° (W) 02:46:41 437.465
HORYU 2 24 Nov 02:45:57 02:50:02 34° 98° (E) 02:54:07 437.375
ISS 24 Nov 02:57:48 02:58:44 11° 354° (N) 02:59:40 145.825
Oscar 19 24 Nov 03:03:02 03:06:18 17° 297° (WNW) 03:09:35 437.125/150
AO-7 24 Nov 03:24:19 03:31:38 33° 97° (E) 03:38:54 29.400- 29.500
YUBILEINY 24 Nov 03:35:04 03:43:32 50° 284° (WNW) 03:52:01 435.215
JAS-2 24 Nov 03:36:10 03:37:08 10° 82° (E) 03:38:04 435.910
SO-50 24 Nov 03:40:44 03:45:02 48° 116° (ESE) 03:49:29 436.795
ITAMSAT 1 24 Nov 03:51:27 03:54:31 16° 298° (WNW) 03:57:35 435.822/435.867
PCSat 24 Nov 03:51:55 03:55:51 20° 46° (NE) 03:59:46 145.827
SRMSAT 24 Nov 03:52:23 03:53:09 10° 182° (S) 03:53:54 437.500
BEESAT 2 24 Nov 03:54:26 03:55:28 11° 39° (NE) 03:56:30 435.950
MOZHAYETS 4 24 Nov 04:03:09 04:07:42 68° 75° (ENE) 04:12:18
Gurwin Techsat 1B 24 Nov 04:10:45 04:14:21 19° 297° (WNW) 04:17:56 435.225
AIST 2 24 Nov 04:19:42 04:20:23 10° 38° (NE) 04:21:04 435.215
HORYU 2 24 Nov 04:23:04 04:26:30 22° 293° (WNW) 04:29:57 437.375
PRISM 24 Nov 04:26:16 04:29:31 22° 67° (ENE) 04:32:49 437.425
RS-15 24 Nov 04:28:12 04:32:03 12° 264° (W) 04:35:58 29.354- 29.394
ISS 24 Nov 04:34:43 04:36:32 14° 15° (NNE) 04:38:20 145.825
O/OREOS (USA 219) 24 Nov 05:03:20 05:05:53 15° 99° (E) 05:08:25 437.305
CUTE-I 24 Nov 05:16:04 05:19:39 18° 92° (E) 05:23:12 437.470
JAS-2 24 Nov 05:16:22 05:23:34 75° 102° (ESE) 05:29:53 435.910
BEESAT 3 24 Nov 05:16:33 05:20:44 63° 57° (ENE) 05:24:51 437.485
AO-7 24 Nov 05:16:36 05:24:40 55° 295° (WNW) 05:32:43 29.400- 29.500
STRAND 1 24 Nov 05:19:43 05:24:19 34° 68° (ENE) 05:28:56 437.568
SO-50 24 Nov 05:22:19 05:25:50 21° 315° (NW) 05:29:26 436.795
BEESAT 2 24 Nov 05:30:15 05:34:29 79° 58° (ENE) 05:38:38 435.950
PCSat 24 Nov 05:34:22 05:39:46 67° 245° (WSW) 05:45:06 145.827
CUBESAT XI-V 24 Nov 05:38:37 05:43:10 49° 73° (ENE) 05:47:44 437.345
MOZHAYETS 4 24 Nov 05:44:08 05:45:23 11° 271° (W) 05:46:38
AIST 2 24 Nov 05:55:30 05:59:49 72° 57° (ENE) 06:04:03 435.215
PRISM 24 Nov 06:01:15 06:04:55 29° 263° (W) 06:08:38 437.425
ISS 24 Nov 06:10:34 06:13:47 50° 34° (NNE) 06:17:01 145.825
AIST 1 24 Nov 06:12:04 06:15:46 26° 75° (ENE) 06:19:25
Cubesat XI-IV 24 Nov 06:12:43 06:18:01 64° 102° (ESE) 06:23:17 437.490
O/OREOS (USA 219) 24 Nov 06:40:30 06:44:50 48° 295° (WNW) 06:49:11 437.305
CUTE-I 24 Nov 06:54:51 07:00:01 54° 288° (WNW) 07:05:09 437.470
BEESAT 3 24 Nov 06:57:01 06:58:24 11° 253° (WSW) 06:59:47 437.485
STRAND 1 24 Nov 06:59:09 07:03:30 28° 264° (W) 07:07:52 437.568
JAS-2 24 Nov 07:02:42 07:07:40 21° 302° (WNW) 07:12:19 435.910
AO-7 24 Nov 07:12:51 07:15:36 12° 315° (NW) 07:18:22 29.400- 29.500
CUBESAT XI-V 24 Nov 07:17:58 07:20:52 16° 268° (W) 07:23:47 437.345
GONETS M04 24 Nov 07:28:56 07:36:48 38° 86° (E) 07:44:42
AIST 2 24 Nov 07:37:14 07:37:48 10° 253° (WSW) 07:38:23 435.215
ISS 24 Nov 07:47:58 07:50:09 17° 229° (SW) 07:52:21 145.825
AIST 1 24 Nov 07:49:47 07:53:19 24° 271° (W) 07:56:48
HO-68 24 Nov 07:52:41 07:58:13 24° 93° (E) 08:03:42 435.675
Cubesat XI-IV 24 Nov 07:54:17 07:57:33 17° 298° (WNW) 08:00:49 437.490
CANX-2 24 Nov 07:56:34 07:59:15 16° 92° (E) 08:01:55 2200.000
COMPASS 1 24 Nov 08:06:33 08:08:41 14° 91° (E) 08:10:49 437.405
DOVE 4 24 Nov 08:28:58 08:31:38 16° 93° (E) 08:34:20 437.250
CUTE 1.7 & AOD 2 24 Nov 08:30:28 08:34:26 35° 97° (E) 08:38:22 437.475
ANTELSAT 24 Nov 08:33:38 08:34:47 11° 63° (ENE) 08:35:56 437.575/2403.000
UKube-1 24 Nov 08:49:16 08:51:53 16° 93° (E) 08:54:29 .
GOMX 1 24 Nov 09:01:06 09:05:10 52° 100° (E) 09:09:18 467.674
Oscar 11 24 Nov 09:01:10 09:04:47 25° 95° (E) 09:08:23 145.826/435.025
SEEDS 24 Nov 09:05:44 09:10:01 80° 102° (ESE) 09:14:18 437.485
CUBEBUG 2 24 Nov 09:05:53 09:08:35 16° 93° (E) 09:11:19 437.445
UWE-3 24 Nov 09:10:12 09:12:48 16° 93° (E) 09:15:25 435.000/436.395/437.385
POLYITAN 1 24 Nov 09:10:31 09:13:38 20° 67° (ENE) 09:16:44 437.675
QB50P2 24 Nov 09:13:11 09:16:24 21° 68° (ENE) 09:19:38 145.880/145.840
CINEMA 3 24 Nov 09:18:01 09:21:54 36° 98° (E) 09:25:53 145.822/145.860
BRITE-PL 24 Nov 09:20:09 09:24:16 65° 285° (WNW) 09:28:24 437.365/2234.400
DUCHIFAT 1 24 Nov 09:20:12 09:23:40 25° 69° (ENE) 09:27:08 145.980
DX 1 24 Nov 09:21:46 09:25:48 37° 98° (E) 09:29:49 434.975-435.025
GONETS M04 24 Nov 09:25:05 09:33:24 46° 285° (WNW) 09:41:49
TIGRISAT 24 Nov 09:25:56 09:29:55 40° 72° (ENE) 09:33:55 435.000
AAUSAT CUBESAT 2 24 Nov 09:26:28 09:30:42 80° 284° (WNW) 09:34:56 437.432
CANX-2 24 Nov 09:31:20 09:35:22 41° 288° (WNW) 09:39:24 2200.000
UNISAT 6 24 Nov 09:38:17 09:42:29 57° 74° (ENE) 09:46:41 437.425
NANOSAT C BR1 24 Nov 09:38:42 09:42:40 39° 72° (ENE) 09:46:39 145.865
HO-68 24 Nov 09:39:17 09:46:21 63° 290° (WNW) 09:53:22 435.675
COMPASS 1 24 Nov 09:40:35 09:44:40 48° 287° (WNW) 09:48:45 437.405
DELFI C3 24 Nov 09:41:12 09:45:19 62° 101° (E) 09:49:24 145.870
VELOX 1 24 Nov 09:43:54 09:47:10 20° 94° (E) 09:50:24 145.980
HUMSAT D 24 Nov 09:46:23 09:49:30 20° 94° (E) 09:52:38 437.325/437.525
50 SAT 24 Nov 09:48:04 09:50:45 17° 93° (E) 09:53:27 437.505
QB50P1 24 Nov 09:48:08 09:52:16 51° 73° (ENE) 09:56:25 145.935-145.965
ZACube-1 24 Nov 09:48:28 09:52:23 36° 98° (E) 09:56:21 437.345
DOVE 4 24 Nov 10:05:44 10:09:34 37° 288° (WNW) 10:13:29 437.250
ANTELSAT 24 Nov 10:06:47 10:11:02 66° 259° (WSW) 10:15:17 437.575/2403.000
CUTE 1.7 & AOD 2 24 Nov 10:07:03 10:10:06 19° 293° (WNW) 10:13:10 437.475
AISAT 24 Nov 10:08:19 10:12:27 38° 98° (E) 10:16:33 437.250
BUGSAT 1 24 Nov 10:08:22 10:12:37 74° 76° (ENE) 10:16:52 437.445
POPSAT HIP 1 24 Nov 10:12:32 10:16:49 83° 257° (WSW) 10:21:06 437.405
FUNcube-1 24 Nov 10:23:50 10:28:04 87° 283° (WNW) 10:32:22 145.935
UKube-1 24 Nov 10:24:08 10:28:15 43° 288° (WNW) 10:32:21 .
CUBEBUG 1 24 Nov 10:28:40 10:32:05 22° 95° (E) 10:35:27 437.445
Oscar 11 24 Nov 10:37:14 10:40:53 27° 291° (WNW) 10:44:33 145.826/435.025
GOMX 1 24 Nov 10:41:08 10:42:53 12° 296° (WNW) 10:44:39 467.674
CUBEBUG 2 24 Nov 10:41:30 10:45:26 39° 288° (WNW) 10:49:27 437.445
POLYITAN 1 24 Nov 10:45:28 10:49:21 34° 262° (W) 10:53:15 437.675
UWE-3 24 Nov 10:45:33 10:49:31 41° 287° (WNW) 10:53:33 435.000/436.395/437.385
QB50P2 24 Nov 10:48:20 10:52:08 31° 263° (W) 10:55:57 145.880/145.840
DUCHIFAT 1 24 Nov 10:55:49 10:59:26 27° 264° (W) 11:03:03 145.980
CINEMA 3 24 Nov 10:56:00 10:58:53 18° 293° (WNW) 11:01:50 145.822/145.860
DX 1 24 Nov 10:58:42 11:01:47 19° 294° (WNW) 11:04:50 434.975-435.025
TIGRISAT 24 Nov 11:04:14 11:06:52 16° 267° (W) 11:09:29 435.000
ESTCUBE 1 24 Nov 11:11:32 11:16:05 71° 102° (ESE) 11:20:35 437.505/2401.250
NANOSAT C BR1 24 Nov 11:16:00 11:18:42 16° 267° (W) 11:21:26 145.865
UNISAT 6 24 Nov 11:18:23 11:19:39 11° 269° (W) 11:20:55 437.425
DELFI C3 24 Nov 11:18:53 11:20:05 11° 297° (WNW) 11:21:17 145.870
VELOX 1 24 Nov 11:19:49 11:23:50 35° 290° (WNW) 11:27:50 145.980
HUMSAT D 24 Nov 11:21:41 11:25:21 31° 289° (WNW) 11:29:02 437.325/437.525
50 SAT 24 Nov 11:22:29 11:26:11 35° 288° (WNW) 11:29:53 437.505
ZACube-1 24 Nov 11:25:35 11:28:31 19° 293° (WNW) 11:31:28 437.345
QB50P1 24 Nov 11:26:32 11:28:27 13° 269° (W) 11:30:23 145.935-145.965
HO-68 24 Nov 11:30:20 11:32:39 12° 310° (NW) 11:34:58 435.675
AISAT 24 Nov 11:45:40 11:48:48 19° 294° (WNW) 11:51:56 437.250
YUBILEINY 24 Nov 11:51:32 11:56:17 15° 61° (ENE) 12:01:01 435.215
ITAMSAT 1 24 Nov 11:52:27 11:54:05 11° 59° (ENE) 11:55:42 435.822/435.867
TISAT 1 24 Nov 11:55:06 11:59:13 50° 100° (E) 12:03:17 437.305
SPROUT 24 Nov 11:59:20 12:03:30 50° 100° (E) 12:07:38 437.525
CUBEBUG 1 24 Nov 12:04:38 12:08:29 31° 290° (WNW) 12:12:17 437.445
AUBIESAT-1 24 Nov 12:06:59 12:08:58 12° 94° (E) 12:10:56 437.475
SWISSCUBE 24 Nov 12:07:27 12:08:15 10° 89° (E) 12:09:02 437.505
M-CUBED/EXP-1 PRIME 24 Nov 12:10:15 12:13:03 15° 95° (E) 12:15:49 437.505
SO-50 24 Nov 12:12:54 12:17:26 37° 51° (NE) 12:21:59 436.795
Gurwin Techsat 1B 24 Nov 12:15:06 12:16:04 11° 58° (ENE) 12:17:02 435.225
BEESAT 24 Nov 12:36:27 12:40:03 21° 94° (E) 12:43:38 436.000
Oscar 19 24 Nov 12:38:24 12:43:30 78° 75° (ENE) 12:48:38 437.125/150
CUSAT 1 24 Nov 12:40:37 12:43:12 32° 97° (E) 12:45:35 437.405
ESTCUBE 1 24 Nov 12:50:44 12:52:20 12° 298° (WNW) 12:53:56 437.505/2401.250
DANDE 24 Nov 12:58:38 13:01:32 52° 98° (E) 13:04:06 436.750
ITAMSAT 1 24 Nov 13:27:32 13:32:46 89° 76° (ENE) 13:38:01 435.822/435.867
ITUPSAT 1 24 Nov 13:30:09 13:34:59 75° 102° (ESE) 13:39:46 437.325
KKS-1 24 Nov 13:31:18 13:33:51 15° 92° (E) 13:36:24 437.445
TISAT 1 24 Nov 13:32:30 13:34:37 14° 296° (WNW) 13:36:43 437.305
SPROUT 24 Nov 13:36:52 13:39:10 14° 295° (WNW) 13:41:27 437.525
AUBIESAT-1 24 Nov 13:39:29 13:44:25 74° 290° (WNW) 13:49:13 437.475
SWISSCUBE 24 Nov 13:41:49 13:46:38 76° 285° (WNW) 13:51:24 437.505
M-CUBED/EXP-1 PRIME 24 Nov 13:43:32 13:48:26 63° 291° (WNW) 13:53:13 437.505
HORYU 2 24 Nov 13:44:07 13:47:55 29° 69° (ENE) 13:51:44 437.375
YUBILEINY 24 Nov 13:45:51 13:54:37 80° 82° (E) 14:03:17 435.215
Gurwin Techsat 1B 24 Nov 13:49:50 13:55:09 81° 75° (ENE) 14:00:29 435.225
SO-50 24 Nov 13:53:44 13:57:50 27° 248° (WSW) 14:01:56 436.795
VERMONT LUNAR 24 Nov 13:58:41 14:01:02 17° 147° (SSE) 14:03:23 437.305
BEESAT 24 Nov 14:13:34 14:18:01 39° 290° (WNW) 14:22:27 436.000
Oscar 19 24 Nov 14:21:55 14:23:24 11° 271° (W) 14:24:53 437.125/150
AO-7 24 Nov 14:22:22 14:29:59 43° 62° (ENE) 14:37:37 29.400- 29.500
RS-15 24 Nov 14:25:11 14:32:35 21° 100° (E) 14:39:54 29.354- 29.394
STARS 24 Nov 14:29:16 14:33:29 44° 99° (E) 14:37:40 437.465
MaSat-1 24 Nov 14:47:15 14:49:57 28° 111° (ESE) 14:52:27 437.345
KKS-1 24 Nov 15:06:29 15:10:45 47° 288° (WNW) 15:14:59 437.445
ITUPSAT 1 24 Nov 15:10:16 15:12:14 12° 299° (WNW) 15:14:10 437.325
O/OREOS (USA 219) 24 Nov 15:12:18 15:16:05 26° 60° (ENE) 15:19:51 437.305
PHONESAT 2.4 24 Nov 15:17:58 15:21:27 38° 156° (SSE) 15:24:56 2401.200-2431.200
HORYU 2 24 Nov 15:20:57 15:24:34 24° 264° (W) 15:28:12 437.375
JAS-2 24 Nov 15:25:57 15:32:38 35° 64° (ENE) 15:39:32 435.910
Gurwin Techsat 1B 24 Nov 15:34:00 15:35:42 11° 271° (W) 15:37:25 435.225
VERMONT LUNAR 24 Nov 15:35:31 15:39:05 61° 162° (SSE) 15:42:41 437.305
YUBILEINY 24 Nov 15:44:34 15:50:18 20° 281° (W) 15:56:01 435.215
Cubesat XI-IV 24 Nov 15:57:40 16:00:00 13° 59° (ENE) 16:02:20 437.490
MOZHAYETS 4 24 Nov 16:00:27 16:03:34 18° 92° (E) 16:06:40
STARS 24 Nov 16:06:49 16:09:37 17° 295° (WNW) 16:12:24 437.465
AO-7 24 Nov 16:14:56 16:22:40 43° 260° (W) 16:30:30 29.400- 29.500
MaSat-1 24 Nov 16:23:40 16:24:34 11° 303° (WNW) 16:25:26 437.345
RS-15 24 Nov 16:32:21 16:43:22 89° 300° (WNW) 16:54:22 29.354- 29.394
CUTE-I 24 Nov 16:36:53 16:41:25 29° 67° (ENE) 16:45:58 437.470
O/OREOS (USA 219) 24 Nov 16:51:36 16:55:25 28° 257° (WSW) 16:59:14 437.305
PHONESAT 2.4 24 Nov 16:56:24 17:00:07 85° 352° (N) 17:03:51 2401.200-2431.200
JAS-2 24 Nov 17:10:00 17:17:17 52° 262° (W) 17:24:56 435.910
VERMONT LUNAR 24 Nov 17:13:57 17:17:35 76° 359° (N) 17:21:14 437.305
STRAND 1 24 Nov 17:33:20 17:34:59 11° 90° (E) 17:36:38 437.568
Cubesat XI-IV 24 Nov 17:33:57 17:39:20 85° 256° (WSW) 17:44:44 437.490
MOZHAYETS 4 24 Nov 17:36:34 17:40:59 44° 288° (WNW) 17:45:23
CUBESAT XI-V 24 Nov 17:38:16 17:40:28 13° 90° (E) 17:42:40 437.345
GONETS M04 24 Nov 17:40:55 17:46:29 18° 62° (ENE) 17:51:59
PRISM 24 Nov 17:44:57 17:48:58 40° 99° (E) 17:52:56 437.425
CUTE-I 24 Nov 18:16:28 18:21:20 35° 263° (W) 18:26:14 437.470
HO-68 24 Nov 18:22:06 18:26:34 18° 55° (NE) 18:31:02 435.675
PCSat 24 Nov 18:34:00 18:37:30 18° 105° (ESE) 18:41:01 145.827
PHONESAT 2.4 24 Nov 18:35:17 18:39:01 87° 9° (N) 18:42:44 2401.200-2431.200
AIST 1 24 Nov 18:41:56 18:44:42 17° 86° (E) 18:47:30
RS-15 24 Nov 18:48:09 18:57:20 30° 327° (NNW) 19:06:39 29.354- 29.394
CANX-2 24 Nov 18:50:57 18:52:12 11° 63° (ENE) 18:53:28 2200.000
VERMONT LUNAR 24 Nov 18:52:30 18:56:07 71° 196° (SSW) 18:59:44 437.305
BRITE-PL 24 Nov 18:54:09 18:56:40 14° 65° (ENE) 18:59:06 437.365/2234.400
STRAND 1 24 Nov 19:09:36 19:14:44 77° 285° (WNW) 19:19:48 437.568
BEESAT 3 24 Nov 19:12:43 19:15:00 15° 109° (ESE) 19:17:18 437.485
CUBESAT XI-V 24 Nov 19:13:41 19:18:17 58° 286° (WNW) 19:22:49 437.345
PRISM 24 Nov 19:21:25 19:24:11 17° 295° (WNW) 19:26:57 437.425
CUTE 1.7 & AOD 2 24 Nov 19:23:26 19:26:47 24° 69° (ENE) 19:30:09 437.475
BEESAT 2 24 Nov 19:26:16 19:29:10 19° 110° (ESE) 19:32:07 435.950
DOVE 4 24 Nov 19:34:26 19:37:31 18° 67° (ENE) 19:40:30 437.250
GONETS M04 24 Nov 19:35:45 19:44:39 87° 83° (E) 19:53:26
UKube-1 24 Nov 19:44:42 19:46:50 14° 63° (ENE) 19:48:59 .
AIST 2 24 Nov 19:54:26 19:57:25 19° 110° (ESE) 20:00:25 435.215
Oscar 11 24 Nov 19:56:03 19:59:03 19° 67° (ENE) 20:02:03 145.826/435.025
SEEDS 24 Nov 19:57:27 20:01:29 49° 74° (ENE) 20:05:33 437.485
CUBEBUG 2 24 Nov 20:04:57 20:07:01 14° 65° (ENE) 20:09:05 437.445
HO-68 24 Nov 20:06:06 20:13:18 90° 262° (W) 20:20:33 435.675
GOMX 1 24 Nov 20:08:17 20:13:01 55° 74° (ENE) 20:17:27 467.674
UWE-3 24 Nov 20:08:21 20:10:09 13° 64° (ENE) 20:11:57 435.000/436.395/437.385
PHONESAT 2.4 24 Nov 20:14:14 20:17:40 35° 205° (SSW) 20:21:04 2401.200-2431.200
PCSat 24 Nov 20:15:02 20:20:22 60° 301° (WNW) 20:25:46 145.827
DX 1 24 Nov 20:16:54 20:20:44 30° 69° (ENE) 20:24:34 434.975-435.025
AAUSAT CUBESAT 2 24 Nov 20:17:01 20:21:06 62° 75° (ENE) 20:25:14 437.432
AIST 1 24 Nov 20:17:54 20:22:01 39° 282° (WNW) 20:26:10
CINEMA 3 24 Nov 20:19:34 20:23:27 31° 71° (ENE) 20:27:14 145.822/145.860
CANX-2 24 Nov 20:23:26 20:27:36 64° 259° (W) 20:31:48 2200.000
DELFI C3 24 Nov 20:29:31 20:33:12 35° 71° (ENE) 20:36:56 145.870
BRITE-PL 24 Nov 20:29:40 20:34:45 65° 259° (W) 20:39:28 437.365/2234.400
COMPASS 1 24 Nov 20:31:18 20:35:27 78° 258° (WSW) 20:39:39 437.405
VERMONT LUNAR 24 Nov 20:31:31 20:34:16 20° 211° (SSW) 20:37:01 437.305
50 SAT 24 Nov 20:38:32 20:39:30 11° 64° (ENE) 20:40:28 437.505
HUMSAT D 24 Nov 20:39:23 20:41:33 14° 65° (ENE) 20:43:43 437.325/437.525
VELOX 1 24 Nov 20:41:43 20:44:44 18° 65° (ENE) 20:47:45 145.980
ZACube-1 24 Nov 20:44:31 20:48:03 26° 70° (ENE) 20:51:33 437.345
BEESAT 3 24 Nov 20:48:49 20:52:47 48° 305° (NW) 20:56:51 437.485
CUTE 1.7 & AOD 2 24 Nov 20:59:00 21:02:36 27° 264° (W) 21:06:13 437.475
BEESAT 2 24 Nov 21:03:18 21:07:10 38° 307° (NW) 21:11:07 435.950
AISAT 24 Nov 21:05:59 21:09:58 32° 70° (ENE) 21:13:58 437.250
RS-15 24 Nov 21:08:01 21:14:56 18° 2° (N) 21:21:57 29.354- 29.394
DOVE 4 24 Nov 21:10:35 21:15:02 42° 261° (W) 21:19:15 437.250
UKube-1 24 Nov 21:18:15 21:22:31 56° 259° (W) 21:26:49 .
FUNcube-1 24 Nov 21:19:12 21:23:23 66° 75° (ENE) 21:27:32 145.935
CUBEBUG 1 24 Nov 21:24:54 21:27:58 19° 66° (ENE) 21:31:01 437.445
Oscar 11 24 Nov 21:30:58 21:34:56 37° 262° (W) 21:38:57 145.826/435.025
AIST 2 24 Nov 21:31:45 21:35:44 40° 307° (NW) 21:39:49 435.215
UNISAT 6 24 Nov 21:32:51 21:34:58 13° 92° (E) 21:37:06 437.425
GONETS M04 24 Nov 21:34:52 21:40:11 18° 283° (WNW) 21:45:29
SEEDS 24 Nov 21:35:42 21:37:36 13° 269° (W) 21:39:30 437.485
CUBEBUG 2 24 Nov 21:39:08 21:43:20 51° 260° (W) 21:47:26 437.445
UWE-3 24 Nov 21:42:05 21:46:16 55° 260° (W) 21:50:23 435.000/436.395/437.385
GOMX 1 24 Nov 21:48:50 21:51:22 14° 268° (W) 21:53:50 467.674
DX 1 24 Nov 21:53:29 21:56:58 23° 265° (W) 22:00:28 434.975-435.025
BUGSAT 1 24 Nov 21:54:41 21:55:43 11° 91° (E) 21:56:45 437.445
CINEMA 3 24 Nov 21:57:18 22:00:42 21° 265° (W) 22:04:00 145.822/145.860
HO-68 24 Nov 21:58:04 22:01:51 15° 270° (W) 22:05:39 435.675
ANTELSAT 24 Nov 22:00:03 22:03:50 27° 96° (E) 22:07:39 437.575/2403.000
POPSAT HIP 1 24 Nov 22:00:15 22:03:01 17° 93° (E) 22:05:46 437.405
PCSat 24 Nov 22:03:26 22:04:57 11° 322° (NW) 22:06:27 145.827
DELFI C3 24 Nov 22:05:56 22:08:37 17° 267° (W) 22:11:20 145.870
50 SAT 24 Nov 22:10:19 22:14:18 60° 259° (W) 22:18:18 437.505
ESTCUBE 1 24 Nov 22:10:26 22:14:54 59° 74° (ENE) 22:19:24 437.505/2401.250
HUMSAT D 24 Nov 22:12:59 22:16:59 47° 261° (W) 22:20:58 437.325/437.525
VELOX 1 24 Nov 22:16:44 22:20:59 42° 261° (W) 22:25:15 145.980
ZACube-1 24 Nov 22:20:58 22:24:23 24° 265° (W) 22:27:47 437.345
POLYITAN 1 24 Nov 22:32:02 22:36:01 39° 98° (E) 22:39:59 437.675
QB50P2 24 Nov 22:34:33 22:38:35 42° 99° (E) 22:42:36 145.880/145.840
DUCHIFAT 1 24 Nov 22:41:23 22:45:29 50° 100° (E) 22:49:34 145.980
AISAT 24 Nov 22:43:07 22:46:38 22° 265° (W) 22:50:10 437.250
TISAT 1 24 Nov 22:47:10 22:51:03 35° 71° (ENE) 22:54:56 437.305
ISS 24 Nov 22:52:02 22:54:45 24° 133° (SE) 22:57:28 145.825
SPROUT 24 Nov 22:53:01 22:56:57 35° 71° (ENE) 23:00:53 437.525
TIGRISAT 24 Nov 22:54:41 22:59:06 78° 284° (WNW) 23:03:36 435.000
AUBIESAT-1 24 Nov 22:56:04 22:58:03 13° 56° (NE) 23:00:06 437.475
M-CUBED/EXP-1 PRIME 24 Nov 22:59:49 23:02:18 16° 58° (ENE) 23:04:54 437.505
CUBEBUG 1 24 Nov 22:59:50 23:04:02 41° 261° (W) 23:08:14 437.445
NANOSAT C BR1 24 Nov 23:00:30 23:04:45 86° 103° (ESE) 23:08:57 145.865
UNISAT 6 24 Nov 23:07:43 23:12:03 55° 286° (WNW) 23:16:28 437.425
QB50P1 24 Nov 23:10:15 23:14:28 73° 285° (WNW) 23:18:40 145.935-145.965
SWISSCUBE 24 Nov 23:13:08 23:15:11 13° 61° (ENE) 23:17:14 437.505
CUSAT 1 24 Nov 23:17:23 23:21:40 37° 79° (E) 23:27:15 437.405
